When you browse on this site, cookies collect data to enhance your experience and personalize the content and advertising you see.
Visit our Privacy Policy to learn more. By continuing to use the site, you agree to this use of cookies and data.
  • In Österreich
  • Länderverzeichnis
  • Für 7 Tage
  • Wassertemperatur
  • Satellitenkarten
  • Wetterkarte
  • News
  • Widgets
  • user-avatar
    Anmelden

    Stündliche Wetter Rigny-Ussé

    Heute, 23 April, Dienstag

    Zeit Temperatur Niederschläge Wind Luftdruck Luftfeuchtigkeit
    00:00 +14°C° 0.2 mm 2 m/S 743 mmHg 85%
    01:00 +13°C° 0 mm 2 m/S 743 mmHg 84%
    02:00 +13°C° 0 mm 2 m/S 743 mmHg 82%
    03:00 +12°C° 0 mm 2 m/S 742 mmHg 80%
    04:00 +12°C° 0 mm 2 m/S 742 mmHg 81%
    05:00 +12°C° 0 mm 2 m/S 742 mmHg 82%
    06:00 +11°C° 0 mm 3 m/S 742 mmHg 83%
    07:00 +12°C° 0.9 mm 3 m/S 742 mmHg 85%
    08:00 +13°C° 0.9 mm 3 m/S 742 mmHg 87%
    09:00 +14°C° 0.9 mm 3 m/S 742 mmHg 89%
    10:00 +15°C° 0.1 mm 4 m/S 742 mmHg 82%
    11:00 +17°C° 0.1 mm 5 m/S 741 mmHg 75%
    12:00 +20°C° 0.1 mm 6 m/S 741 mmHg 67%
    13:00 +20°C° 0 mm 6 m/S 741 mmHg 66%
    14:00 +21°C° 0 mm 5 m/S 740 mmHg 65%
    15:00 +21°C° 0 mm 5 m/S 740 mmHg 64%
    16:00 +20°C° 1.1 mm 4 m/S 740 mmHg 70%
    17:00 +19°C° 1.1 mm 4 m/S 740 mmHg 76%
    18:00 +18°C° 1.1 mm 3 m/S 740 mmHg 82%
    19:00 +16°C° 0.3 mm 3 m/S 740 mmHg 86%
    20:00 +14°C° 0.3 mm 3 m/S 740 mmHg 90%
    21:00 +13°C° 0.3 mm 3 m/S 740 mmHg 95%
    22:00 +13°C° 0.8 mm 3 m/S 741 mmHg 94%
    23:00 +12°C° 0.8 mm 4 m/S 741 mmHg 93%

    Morgen, 24 April, Mittwoch

    Zeit Temperatur Niederschläge Wind Luftdruck Luftfeuchtigkeit
    00:00 +12°C° 0.8 mm 5 m/S 742 mmHg 92%
    01:00 +10°C° 0.4 mm 5 m/S 742 mmHg 92%
    02:00 +11°C° 0.4 mm 4 m/S 742 mmHg 93%
    03:00 +11°C° 0.4 mm 4 m/S 742 mmHg 94%
    04:00 +11°C° 0.1 mm 4 m/S 743 mmHg 93%
    05:00 +10°C° 0.1 mm 3 m/S 743 mmHg 93%
    06:00 +10°C° 0.1 mm 3 m/S 744 mmHg 92%
    07:00 +11°C° 0.2 mm 3 m/S 744 mmHg 87%
    08:00 +11°C° 0.2 mm 4 m/S 745 mmHg 83%
    09:00 +12°C° 0.2 mm 4 m/S 745 mmHg 78%
    10:00 +13°C° 0.5 mm 5 m/S 745 mmHg 75%
    11:00 +13°C° 0.5 mm 6 m/S 745 mmHg 71%
    12:00 +14°C° 0.5 mm 7 m/S 745 mmHg 68%
    13:00 +14°C° 0.4 mm 7 m/S 745 mmHg 67%
    14:00 +14°C° 0.4 mm 7 m/S 744 mmHg 67%
    15:00 +14°C° 0.4 mm 7 m/S 744 mmHg 66%
    16:00 +14°C° 0.5 mm 6 m/S 744 mmHg 71%
    17:00 +13°C° 0.5 mm 6 m/S 744 mmHg 75%
    18:00 +12°C° 0.5 mm 5 m/S 744 mmHg 80%
    19:00 +11°C° 0 mm 6 m/S 744 mmHg 79%
    20:00 +10°C° 0 mm 6 m/S 744 mmHg 78%
    21:00 +10°C° 0 mm 7 m/S 744 mmHg 76%
    22:00 +10°C° 0.8 mm 8 m/S 744 mmHg 80%
    23:00 +10°C° 0.8 mm 9 m/S 744 mmHg 84%

    übermorgen, 25 April, Donnerstag

    Zeit Temperatur Niederschläge Wind Luftdruck Luftfeuchtigkeit
    00:00 +9°C° 0.8 mm 10 m/S 743 mmHg 88%
    01:00 +9°C° 1.2 mm 10 m/S 743 mmHg 89%
    02:00 +9°C° 1.2 mm 10 m/S 743 mmHg 90%
    03:00 +8°C° 1.2 mm 10 m/S 743 mmHg 91%
    04:00 +8°C° 0.4 mm 9 m/S 744 mmHg 91%
    05:00 +7°C° 0.4 mm 8 m/S 745 mmHg 90%
    06:00 +8°C° 0.4 mm 7 m/S 746 mmHg 90%
    07:00 +9°C° 0.3 mm 7 m/S 746 mmHg 85%
    08:00 +10°C° 0.3 mm 8 m/S 747 mmHg 80%
    09:00 +11°C° 0.3 mm 8 m/S 748 mmHg 75%
    10:00 +11°C° 0.3 mm 8 m/S 748 mmHg 73%
    11:00 +11°C° 0.3 mm 8 m/S 749 mmHg 71%
    12:00 +12°C° 0.3 mm 8 m/S 749 mmHg 68%
    13:00 +11°C° 0.7 mm 7 m/S 749 mmHg 71%
    14:00 +11°C° 0.7 mm 7 m/S 750 mmHg 73%
    15:00 +11°C° 0.7 mm 7 m/S 750 mmHg 75%
    16:00 +11°C° 0.2 mm 6 m/S 750 mmHg 77%
    17:00 +10°C° 0.2 mm 5 m/S 751 mmHg 79%
    18:00 +11°C° 0.2 mm 4 m/S 751 mmHg 81%
    19:00 +10°C° 0 mm 4 m/S 752 mmHg 84%
    20:00 +8°C° 0 mm 4 m/S 752 mmHg 87%
    21:00 +6°C° 0 mm 4 m/S 753 mmHg 90%
    22:00 +6°C° 0.2 mm 5 m/S 753 mmHg 91%
    23:00 +6°C° 0.2 mm 5 m/S 753 mmHg 92%

    26 April, Freitag

    Zeit Temperatur Niederschläge Wind Luftdruck Luftfeuchtigkeit
    00:00 +5°C° 0.2 mm 6 m/S 753 mmHg 93%
    01:00 +5°C° 0.1 mm 6 m/S 753 mmHg 93%
    02:00 +5°C° 0.1 mm 6 m/S 754 mmHg 92%
    03:00 +5°C° 0.1 mm 6 m/S 754 mmHg 92%
    04:00 +5°C° 0 mm 6 m/S 754 mmHg 92%
    05:00 +7°C° 0 mm 6 m/S 754 mmHg 93%
    06:00 +7°C° 0 mm 6 m/S 754 mmHg 93%
    07:00 +9°C° 0.1 mm 7 m/S 755 mmHg 87%
    08:00 +10°C° 0.1 mm 7 m/S 755 mmHg 81%
    09:00 +12°C° 0.1 mm 8 m/S 755 mmHg 75%
    10:00 +12°C° 0.5 mm 8 m/S 756 mmHg 76%
    11:00 +12°C° 0.5 mm 8 m/S 756 mmHg 78%
    12:00 +13°C° 0.5 mm 8 m/S 756 mmHg 79%
    13:00 +13°C° 0.6 mm 8 m/S 757 mmHg 78%
    14:00 +13°C° 0.6 mm 8 m/S 757 mmHg 77%
    15:00 +13°C° 0.6 mm 8 m/S 757 mmHg 76%
    16:00 +12°C° 0.5 mm 8 m/S 758 mmHg 78%
    17:00 +11°C° 0.5 mm 7 m/S 759 mmHg 81%
    18:00 +11°C° 0.5 mm 6 m/S 760 mmHg 83%
    19:00 +9°C° 0.1 mm 5 m/S 761 mmHg 85%
    20:00 +8°C° 0.1 mm 5 m/S 762 mmHg 86%
    21:00 +7°C° 0.1 mm 4 m/S 763 mmHg 87%
    22:00 +6°C° 0 mm 4 m/S 763 mmHg 89%
    23:00 +5°C° 0 mm 4 m/S 763 mmHg 90%

    27 April, Samstag

    Zeit Temperatur Niederschläge Wind Luftdruck Luftfeuchtigkeit
    00:00 +4°C° 0 mm 3 m/S 764 mmHg 92%
    01:00 +4°C° 0 mm 3 m/S 764 mmHg 91%
    02:00 +4°C° 0 mm 3 m/S 763 mmHg 91%
    03:00 +4°C° 0 mm 3 m/S 763 mmHg 91%
    04:00 +5°C° 0.1 mm 4 m/S 763 mmHg 90%
    05:00 +6°C° 0.1 mm 5 m/S 763 mmHg 90%
    06:00 +7°C° 0.1 mm 5 m/S 763 mmHg 89%
    07:00 +9°C° 0.1 mm 6 m/S 763 mmHg 88%
    08:00 +10°C° 0.1 mm 6 m/S 763 mmHg 88%
    09:00 +11°C° 0.1 mm 7 m/S 763 mmHg 87%
    10:00 +12°C° 0.3 mm 7 m/S 763 mmHg 83%
    11:00 +14°C° 0.3 mm 7 m/S 763 mmHg 79%
    12:00 +15°C° 0.3 mm 8 m/S 763 mmHg 75%
    13:00 +15°C° 0.1 mm 8 m/S 763 mmHg 71%
    14:00 +15°C° 0.1 mm 7 m/S 763 mmHg 68%
    15:00 +15°C° 0.1 mm 7 m/S 763 mmHg 64%
    16:00 +14°C° 0 mm 6 m/S 763 mmHg 67%
    17:00 +12°C° 0 mm 5 m/S 764 mmHg 70%
    18:00 +11°C° 0 mm 4 m/S 764 mmHg 73%
    19:00 +10°C° 0 mm 4 m/S 765 mmHg 75%
    20:00 +8°C° 0 mm 3 m/S 766 mmHg 78%
    21:00 +5°C° 0 mm 3 m/S 767 mmHg 80%
    22:00 +5°C° 0 mm 3 m/S 767 mmHg 82%
    23:00 +5°C° 0 mm 2 m/S 767 mmHg 84%

    28 April, Sonntag

    Zeit Temperatur Niederschläge Wind Luftdruck Luftfeuchtigkeit
    00:00 +5°C° 0 mm 2 m/S 767 mmHg 86%
    01:00 +4°C° 0 mm 2 m/S 767 mmHg 87%
    02:00 +5°C° 0 mm 1 m/S 767 mmHg 89%
    03:00 +4°C° 0 mm 1 m/S 767 mmHg 90%
    04:00 +5°C° 0 mm 1 m/S 767 mmHg 88%
    05:00 +5°C° 0 mm 0 m/S 767 mmHg 86%
    06:00 +5°C° 0 mm 0 m/S 768 mmHg 84%
    07:00 +7°C° 0 mm 0 m/S 767 mmHg 78%
    08:00 +10°C° 0 mm 1 m/S 767 mmHg 71%
    09:00 +12°C° 0 mm 1 m/S 767 mmHg 65%
    10:00 +13°C° 0 mm 1 m/S 766 mmHg 61%
    11:00 +15°C° 0 mm 1 m/S 766 mmHg 57%
    12:00 +16°C° 0 mm 1 m/S 765 mmHg 53%
    13:00 +18°C° 0 mm 1 m/S 765 mmHg 52%
    14:00 +16°C° 0 mm 0 m/S 764 mmHg 52%
    15:00 +17°C° 0 mm 0 m/S 764 mmHg 52%
    16:00 +16°C° 0 mm 0 m/S 764 mmHg 57%
    17:00 +16°C° 0 mm 0 m/S 763 mmHg 62%
    18:00 +15°C° 0 mm 0 m/S 763 mmHg 67%
    19:00 +15°C° 0 mm 1 m/S 763 mmHg 70%
    20:00 +13°C° 0 mm 1 m/S 763 mmHg 73%
    21:00 +11°C° 0 mm 1 m/S 763 mmHg 77%
    22:00 +11°C° 0 mm 1 m/S 763 mmHg 79%
    23:00 +9°C° 0 mm 2 m/S 763 mmHg 81%
    Mehr zeigen